Taylorville, IL

10:37 AM CST on January 20, 2017 (GMT -0600)
Taylorville

Weather History for KTAZ - April, 2008

Change the Weather History Date:

Sunday, April 27, 2008

  Actual Average (KSPI) Record (KSPI)
Temperature  
Mean Temperature 48 °F -  
Max Temperature 55 °F 69 °F 87 °F (1981)
Min Temperature 41 °F 48 °F 33 °F (1968)
Degree Days  
Heating Degree Days 17    
Moisture  
Dew Point 38 °F    
Average Humidity 71    
Maximum Humidity 93    
Minimum Humidity 36    
Precipitation  
Precipitation 0.00 in - - ()
Sea Level Pressure  
Sea Level Pressure 30.15 in    
Wind  
Wind Speed 4 mph (NW)    
Max Wind Speed 16 mph    
Max Gust Speed 20 mph    
Visibility 10 miles    
Events Rain    
Averages and records for this station are not official NWS values.
T = Trace of Precipitation, MM = Missing Value Source: NWS Daily Summary

Daily Weather History Graph

Daily Weather History Graph

Search for Another Location

Airport or City:

Trip Planner

Search our weather history database for the weather conditions in past years. The results will help you decide how hot, cold, wet, or windy it might be!

Date:

Astronomy

Apr. 27, 2008 Rise Set
Actual Time 6:02 AM CDT 7:47 PM CDT
Civil Twilight 5:33 AM CDT 8:16 PM CDT
Nautical Twilight 4:59 AM CDT 8:51 PM CDT
Astronomical Twilight 4:21 AM CDT 9:28 PM CDT
Moon 1:41 AM CDT (4/27) 11:09 AM CDT (4/27)
Length of Visible Light 14h 42m
Length of Day
13h 44m
Waning Gibbous, 59% of the Moon is Illuminated
Apr 27
Waning Gibbous
Apr 28
Last Quarter
May 5
New
May 11
First Quarter
May 19
Full

Hourly Weather History & Observations

Time (CDT) Temp. Windchill Dew Point Humidity Pressure Visibility Wind Dir Wind Speed Gust Speed Precip Events Conditions
12:05 AM 48.2 °F - 37.4 °F 66% 30.16 in 10.0 mi Calm Calm - N/A   Clear
12:25 AM 46.4 °F - 37.4 °F 71% 30.16 in 10.0 mi Calm Calm - N/A   Clear
12:45 AM 48.2 °F - 37.4 °F 66% 30.16 in 10.0 mi Calm Calm - N/A   Clear
1:05 AM 46.4 °F - 37.4 °F 71% 30.17 in 10.0 mi Calm Calm - N/A   Clear
1:25 AM 44.6 °F 42.2 °F 39.2 °F 81% 30.18 in 10.0 mi WNW 4.6 mph - N/A   Clear
1:45 AM 44.6 °F 42.2 °F 39.2 °F 81% 30.19 in 10.0 mi WNW 4.6 mph - N/A   Clear
2:05 AM 44.6 °F - 39.2 °F 81% 30.19 in 10.0 mi Calm Calm - N/A   Clear
2:25 AM 44.6 °F - 37.4 °F 76% 30.20 in 10.0 mi Calm Calm - N/A   Clear
2:45 AM 44.6 °F - 37.4 °F 76% 30.19 in 10.0 mi Calm Calm - N/A   Clear
3:05 AM 44.6 °F 43.1 °F 37.4 °F 76% 30.20 in 10.0 mi NNW 3.5 mph - N/A   Clear
3:25 AM 42.8 °F 39.3 °F 37.4 °F 81% 30.20 in 10.0 mi North 5.8 mph - N/A   Clear
4:05 AM 44.6 °F 39.2 °F 33.8 °F 66% 30.19 in 10.0 mi North 10.4 mph - N/A   Clear
4:25 AM 44.6 °F 43.1 °F 33.8 °F 66% 30.19 in 10.0 mi North 3.5 mph - N/A   Clear
5:05 AM 42.8 °F - 33.8 °F 70% 30.19 in 10.0 mi Calm Calm - N/A   Clear
5:25 AM 41.0 °F - 33.8 °F 76% 30.20 in 10.0 mi Calm Calm - N/A   Clear
5:45 AM 41.0 °F - 33.8 °F 76% 30.20 in 10.0 mi Calm Calm - N/A   Clear
6:05 AM 41.0 °F - 32.0 °F 70% 30.20 in 10.0 mi Calm Calm - N/A   Clear
6:25 AM 41.0 °F - 32.0 °F 70% 30.20 in 10.0 mi Calm Calm - N/A   Clear
6:45 AM 42.8 °F - 33.8 °F 70% 30.20 in 10.0 mi Calm Calm - N/A   Clear
7:25 AM 44.6 °F - 35.6 °F 71% 30.21 in 10.0 mi Calm Calm - N/A   Clear
8:05 AM 46.4 °F 42.9 °F 30.2 °F 53% 30.21 in 10.0 mi NE 6.9 mph - N/A   Clear
8:25 AM 48.2 °F - 30.2 °F 50% 30.21 in 10.0 mi NE 9.2 mph - N/A   Clear
8:45 AM 50.0 °F - 30.2 °F 47% 30.22 in 10.0 mi NNE 10.4 mph - N/A   Clear
9:25 AM 51.8 °F - 30.2 °F 44% 30.21 in 10.0 mi NE 12.7 mph - N/A   Clear
9:45 AM 53.6 °F - 28.4 °F 38% 30.20 in 10.0 mi NNE 10.4 mph 17.3 mph N/A   Clear
10:25 AM 55.4 °F - 28.4 °F 36% 30.20 in 10.0 mi NNE 13.8 mph - N/A   Mostly Cloudy
10:45 AM 55.4 °F - 32.0 °F 41% 30.19 in 10.0 mi North 15.0 mph - N/A   Scattered Clouds
11:05 AM 55.4 °F - 32.0 °F 41% 30.20 in 10.0 mi North 13.8 mph 19.6 mph N/A   Clear
11:25 AM 55.4 °F - 33.8 °F 44% 30.19 in 10.0 mi North 12.7 mph 18.4 mph N/A   Mostly Cloudy
12:05 PM 55.4 °F - 33.8 °F 44% 30.17 in 10.0 mi North 11.5 mph 16.1 mph N/A   Scattered Clouds
12:25 PM 55.4 °F - 33.8 °F 44% 30.16 in 10.0 mi NNW 15.0 mph - N/A   Scattered Clouds
12:45 PM 55.4 °F - 33.8 °F 44% 30.16 in 10.0 mi NNW 13.8 mph 19.6 mph N/A   Mostly Cloudy
1:05 PM 53.6 °F - 33.8 °F 47% 30.15 in 10.0 mi NNW 13.8 mph - N/A   Scattered Clouds
1:25 PM 55.4 °F - 35.6 °F 47% 30.15 in 10.0 mi North 16.1 mph - N/A   Scattered Clouds
2:05 PM 53.6 °F - 35.6 °F 51% 30.14 in 10.0 mi North 12.7 mph 18.4 mph N/A   Mostly Cloudy
2:25 PM 53.6 °F - 37.4 °F 54% 30.14 in 10.0 mi North 15.0 mph 19.6 mph N/A   Mostly Cloudy
3:05 PM 48.2 °F - 42.8 °F 82% 30.16 in 5.0 mi NNW 13.8 mph - N/A Rain Rain
3:25 PM 48.2 °F - 42.8 °F 82% 30.16 in 5.0 mi NW 10.4 mph - N/A   Drizzle
4:05 PM 48.2 °F - 42.8 °F 82% 30.14 in 7.0 mi NW 4.6 mph - N/A Rain Light Rain
4:25 PM 48.2 °F - 42.8 °F 82% 30.14 in 7.0 mi Calm Calm - N/A Rain Light Rain
4:45 PM 46.4 °F - 41.0 °F 81% 30.13 in 10.0 mi Calm Calm - N/A   Light Drizzle
5:05 PM 48.2 °F - 42.8 °F 82% 30.12 in 10.0 mi Calm Calm - N/A   Light Drizzle
5:25 PM 46.4 °F - 41.0 °F 81% 30.12 in 10.0 mi Calm Calm - N/A Rain Light Rain
5:45 PM 46.4 °F - 41.0 °F 81% 30.11 in 10.0 mi Calm Calm - N/A Rain Light Rain
6:05 PM 48.2 °F - 42.8 °F 82% 30.11 in 10.0 mi Calm Calm - N/A Rain Light Rain
6:25 PM 48.2 °F - 42.8 °F 82% 30.10 in 10.0 mi SSW 4.6 mph - N/A   Light Drizzle
6:45 PM 48.2 °F - 42.8 °F 82% 30.10 in 10.0 mi SSW 4.6 mph - N/A   Clear
7:05 PM 48.2 °F - 42.8 °F 82% 30.10 in 10.0 mi SW 3.5 mph - N/A   Clear
7:25 PM 46.4 °F 45.2 °F 42.8 °F 87% 30.10 in 10.0 mi West 3.5 mph - N/A Rain Light Rain
7:45 PM 46.4 °F - 42.8 °F 87% 30.11 in 10.0 mi Calm Calm - N/A   Scattered Clouds
8:05 PM 46.4 °F 45.2 °F 42.8 °F 87% 30.10 in 10.0 mi West 3.5 mph - N/A   Scattered Clouds
8:25 PM 46.4 °F - 42.8 °F 87% 30.10 in 10.0 mi Calm Calm - N/A   Overcast
8:45 PM 46.4 °F - 42.8 °F 87% 30.10 in 10.0 mi Calm Calm - N/A   Mostly Cloudy
9:05 PM 46.4 °F 45.2 °F 42.8 °F 87% 30.10 in 10.0 mi West 3.5 mph - N/A   Mostly Cloudy
9:25 PM 46.4 °F 44.3 °F 42.8 °F 87% 30.10 in 10.0 mi West 4.6 mph - N/A   Overcast
9:45 PM 46.4 °F 44.3 °F 42.8 °F 87% 30.10 in 10.0 mi West 4.6 mph - N/A   Overcast
10:25 PM 46.4 °F 43.5 °F 42.8 °F 87% 30.09 in 10.0 mi West 5.8 mph - N/A   Overcast
10:45 PM 46.4 °F 43.5 °F 42.8 °F 87% 30.09 in 10.0 mi West 5.8 mph - N/A   Scattered Clouds
11:05 PM 44.6 °F 43.1 °F 42.8 °F 93% 30.08 in 10.0 mi WSW 3.5 mph - N/A   Clear
11:25 PM 44.6 °F - 42.8 °F 93% 30.06 in 10.0 mi Calm Calm - N/A   Clear
11:45 PM 42.8 °F 40.1 °F 41.0 °F 93% 30.06 in 7.0 mi WSW 4.6 mph - N/A   Clear